Flag for Switzerland Weather past 2 weeks in Sion, Valais, Switzerland

Now
56 °F

Refreshingly cool.


Feels Like: 56 °F
Forecast: 46 / 70 °F
Wind: 1 mph from Southeast

Location: Sion

Current Time: May 24, 2015 at 9:50:58 AM

Latest Report: May 24, 2015 at 9:00 AM


Visibility: N/A

Pressure: 30.01 "Hg

Humidity: 57%

Dew point: 41 °F

Location of SionLocation

Historic Weather in Sion — Graph

°F

Sion temperature yesterday

Maximum temperature yesterday: 68 °F (at 3:00 PM)
Minimum temperature yesterday: 45 °F (at 6:00 AM)
Average temperature yesterday: 58 °F

Past Weeks' High & Low Weather Summary

 TemperatureHumidityPressure
High87 °F (May 13, 6:00 PM)95% (May 16, 3:00 AM)30.40 "Hg (May 16, 3:00 AM)
Low39 °F (May 16, 4:00 AM)21% (May 13, 6:00 PM)29.67 "Hg (May 14, 5:00 PM)
Average60 °F59%30.05 "Hg
* Reported May 9 8:00 AM — May 24 8:00 AM, Sion, Weather by CustomWeather, © 2015

Note: Actual official high and low records may vary slightly from our data, if they occured in-between our weather recording intervals... More about our weather records

Advertising

Sion weather history for previous 24 hours

 ConditionsComfort  
Time TempWeatherWind HumidityBarometerVisibility
8:00 AM
Sun, May 24
53 °FPassing clouds.1 mph68%30.02 "Hg19 mi
7:00 AM48 °FCool.1 mph81%30.02 "HgN/A
6:00 AM46 °FCool.1 mph84%30.03 "HgN/A
5:00 AM48 °FClear.1 mph75%30.01 "Hg16 mi
4:00 AM50 °FCool.1 mph72%30.01 "HgN/A
3:00 AM52 °FCool.1 mph77%30.00 "HgN/A
2:00 AM54 °FPassing clouds.2 mph71%30.00 "Hg12 mi
1:00 AM56 °FRefreshingly cool.1 mph57%29.99 "HgN/A
12:00 AM59 °FRefreshingly cool.1 mph49%29.98 "HgN/A
10:00 PM
Sat, May 23
60 °FRefreshingly cool.7 mph44%29.96 "HgN/A
9:00 PM61 °FRefreshingly cool.10 mph44%29.93 "HgN/A
8:00 PM63 °FOvercast.14 mph42%29.91 "Hg16 mi
7:00 PM64 °FMild.18 mph42%29.89 "HgN/A
6:00 PM65 °FMild.15 mph39%29.88 "HgN/A
5:00 PM67 °FOvercast.15 mph37%29.86 "Hg16 mi
4:00 PM67 °FMild.13 mph36%29.87 "HgN/A
3:00 PM68 °FMild.9 mph33%29.87 "HgN/A
2:00 PM66 °FOvercast.14 mph35%29.89 "Hg12 mi
1:00 PM65 °FMild.12 mph36%29.91 "HgN/A
12:40 PM64 °FMild.13 mph35%29.92 "HgN/A
12:00 PM64 °FMild.7 mph38%29.93 "HgN/A
11:00 AM60 °FPartly sunny.5 mph50%29.96 "Hg16 mi
10:00 AM56 °FRefreshingly cool.3 mph50%29.99 "HgN/A
9:00 AM54 °FCool.1 mph62%30.00 "HgN/A
Weather by CustomWeather, © 2015

See weather overviewHow to use our weather pages